0,2024,04,29,09,14,39,31.27,16.45,87.77,30.9
1,2024,04,29,09,19,17,31.25,16.46,87.78,30.9
2,2024,04,29,09,23,55,31.46,16.47,87.79,30.9
3,2024,04,29,09,28,33,31.26,16.48,87.8,30.9
4,2024,04,29,09,33,12,31.35,16.49,87.82,30.9
5,2024,04,29,09,37,50,31.36,16.5,87.83,30.9
6,2024,04,29,09,42,28,31.36,16.51,87.84,31.0
7,2024,04,29,09,47,05,31.14,16.52,87.86,30.9
8,2024,04,29,09,51,44,31.25,16.53,87.87,30.9
9,2024,04,29,09,56,23,31.3,16.54,87.88,30.9
10,2024,04,29,10,01,01,31.19,16.55,87.89,30.9
11,2024,04,29,10,05,39,31.11,16.55,87.9,30.9
12,2024,04,29,10,10,16,31.03,16.56,87.91,30.9
13,2024,04,29,10,14,54,31.15,16.57,87.92,30.8
14,2024,04,29,10,19,32,31.21,16.58,87.93,30.8
15,2024,04,29,10,24,11,31.17,16.59,87.94,30.8
16,2024,04,29,10,28,48,31.08,16.59,87.95,30.8
17,2024,04,29,10,33,26,31.11,16.6,87.96,30.8
18,2024,04,29,10,38,05,30.96,16.62,87.98,30.8
19,2024,04,29,10,42,42,30.93,16.62,87.99,30.8
20,2024,04,29,10,47,20,31.04,16.64,88.0,30.7
21,2024,04,29,10,51,58,30.98,16.64,88.01,30.7
22,2024,04,29,10,56,36,30.96,16.66,88.03,30.7
23,2024,04,29,11,01,14,30.92,16.67,88.04,30.7
24,2024,04,29,11,05,51,30.88,16.68,88.05,30.7
25,2024,04,29,11,10,29,30.95,16.69,88.06,30.6
26,2024,04,29,11,15,07,30.94,16.7,88.08,30.6
27,2024,04,29,11,19,45,30.82,16.71,88.09,30.6
28,2024,04,29,11,24,22,30.84,16.72,88.1,30.6
29,2024,04,29,11,29,00,30.99,16.73,88.11,30.6
30,2024,04,29,11,33,38,30.96,16.74,88.13,30.6
31,2024,04,29,11,38,16,30.84,16.75,88.14,30.6
32,2024,04,29,11,42,54,30.92,16.76,88.15,30.6
33,2024,04,29,11,47,31,30.87,16.77,88.16,30.6
34,2024,04,29,11,52,09,30.96,16.78,88.18,30.6
35,2024,04,29,11,56,47,30.82,16.79,88.19,30.6
36,2024,04,29,12,01,25,30.95,16.8,88.2,30.6
37,2024,04,29,12,06,03,30.85,16.82,88.22,30.6
38,2024,04,29,12,10,40,30.85,16.82,88.23,30.6
39,2024,04,29,12,15,18,30.89,16.84,88.24,30.6
40,2024,04,29,12,19,56,30.85,16.84,88.25,30.6
41,2024,04,29,12,24,34,30.86,16.86,88.27,30.6
42,2024,04,29,12,29,12,30.88,16.87,88.28,30.5
43,2024,04,29,12,33,49,30.74,16.88,88.29,30.5
44,2024,04,29,12,38,27,30.75,16.89,88.31,30.5
45,2024,04,29,12,43,05,30.79,16.9,88.32,30.5
46,2024,04,29,12,47,43,30.69,16.91,88.33,30.5
47,2024,04,29,12,52,22,30.73,16.92,88.35,30.5
48,2024,04,29,12,56,59,30.67,16.93,88.36,30.5
49,2024,04,29,13,01,37,30.68,16.94,88.37,30.5
50,2024,04,29,13,06,14,30.69,16.95,88.38,30.5
51,2024,04,29,13,10,52,30.73,16.96,88.39,30.5
52,2024,04,29,13,15,30,30.69,16.97,88.41,30.5
53,2024,04,29,13,20,08,30.62,16.98,88.42,30.5
54,2024,04,29,13,24,46,30.6,16.99,88.43,30.5
55,2024,04,29,13,29,25,30.64,17.0,88.45,30.5
56,2024,04,29,13,34,02,30.59,17.01,88.46,30.5
57,2024,04,29,13,38,40,30.57,17.02,88.47,30.5
58,2024,04,29,13,43,18,30.54,17.03,88.48,30.5
59,2024,04,29,13,47,56,30.53,17.04,88.5,30.5
60,2024,04,29,13,52,34,30.57,17.05,88.51,30.5
61,2024,04,29,13,57,11,30.56,17.06,88.52,30.5
62,2024,04,29,14,01,49,30.62,17.07,88.53,30.5
63,2024,04,29,14,06,26,30.47,17.08,88.55,30.5
64,2024,04,29,14,11,04,30.58,17.09,88.56,30.5
65,2024,04,29,14,15,43,30.4,17.1,88.57,30.5
66,2024,04,29,14,20,21,30.48,17.12,88.59,30.5
67,2024,04,29,14,24,58,30.45,17.12,88.6,30.5
68,2024,04,29,14,29,36,30.57,17.14,88.61,30.5
69,2024,04,29,14,34,14,30.56,17.15,88.62,30.5
70,2024,04,29,14,38,52,30.5,17.16,88.64,30.4
71,2024,04,29,14,43,30,30.52,17.17,88.65,30.4
72,2024,04,29,14,48,08,30.44,17.18,88.66,30.4
73,2024,04,29,14,52,46,30.53,17.19,88.67,30.4
74,2024,04,29,14,57,23,30.43,17.2,88.69,30.4
75,2024,04,29,15,02,01,30.51,17.21,88.7,30.4
76,2024,04,29,15,06,39,30.51,17.22,88.71,30.4
77,2024,04,29,15,11,17,30.51,17.23,88.73,30.4
78,2024,04,29,15,15,54,30.48,17.24,88.74,30.4
79,2024,04,29,15,20,32,30.58,17.25,88.75,30.4
80,2024,04,29,15,25,11,30.55,17.26,88.77,30.4
81,2024,04,29,15,29,48,30.42,17.27,88.78,30.5
82,2024,04,29,15,34,27,30.52,17.28,88.79,30.5
83,2024,04,29,15,39,04,30.48,17.29,88.8,30.5
84,2024,04,29,15,43,42,30.54,17.3,88.82,30.5
85,2024,04,29,15,48,20,30.53,17.31,88.83,30.5
86,2024,04,29,15,52,58,30.4,17.32,88.84,30.5
87,2024,04,29,15,57,35,30.69,17.33,88.85,30.5
88,2024,04,29,16,02,14,30.21,17.34,88.87,30.5
89,2024,04,29,16,06,53,30.42,17.35,88.88,30.5
90,2024,04,29,16,11,31,30.55,17.36,88.89,30.5
91,2024,04,29,16,16,08,30.52,17.37,88.9,30.5
92,2024,04,29,16,20,46,30.61,17.38,88.91,30.5
93,2024,04,29,16,25,23,30.52,17.39,88.93,30.5
94,2024,04,29,16,30,01,30.34,17.4,88.94,30.5
95,2024,04,29,16,34,39,30.32,17.41,88.95,30.5
96,2024,04,29,16,39,16,30.32,17.42,88.97,30.5
97,2024,04,29,16,43,54,30.56,17.43,88.98,30.4
98,2024,04,29,16,48,32,30.51,17.44,88.99,30.5
99,2024,04,29,16,53,09,30.48,17.45,89.0,30.4
100,2024,04,29,16,57,47,30.47,17.46,89.01,30.4
101,2024,04,29,17,02,25,30.55,17.47,89.03,30.4
102,2024,04,29,17,07,02,30.59,17.48,89.04,30.4
103,2024,04,29,17,11,40,30.52,17.49,89.05,30.5
104,2024,04,29,17,16,17,30.51,17.5,89.06,30.5
105,2024,04,29,17,20,55,30.5,17.51,89.07,30.5
106,2024,04,29,17,25,33,30.56,17.52,89.09,30.5
107,2024,04,29,17,30,11,30.55,17.53,89.1,30.5
108,2024,04,29,17,34,49,30.49,17.54,89.11,30.5
109,2024,04,29,17,39,27,30.46,17.55,89.13,30.4
110,2024,04,29,17,44,05,30.46,17.56,89.14,30.4
111,2024,04,29,17,48,42,30.38,17.57,89.15,30.4
112,2024,04,29,17,53,20,30.44,17.58,89.16,30.4
113,2024,04,29,17,57,58,30.59,17.59,89.17,30.5
114,2024,04,29,18,02,35,30.73,17.6,89.19,30.7
115,2024,04,29,18,07,14,30.76,17.61,89.2,30.6
116,2024,04,29,18,11,52,30.51,17.62,89.21,30.6
117,2024,04,29,18,16,29,30.28,17.63,89.22,30.5
118,2024,04,29,18,21,07,30.47,17.64,89.24,30.5
119,2024,04,29,18,25,45,30.57,17.65,89.25,30.5
120,2024,04,29,18,30,23,30.59,17.66,89.26,30.5
121,2024,04,29,18,35,01,30.63,17.67,89.27,30.5
122,2024,04,29,18,39,38,30.57,17.68,89.28,30.5
123,2024,04,29,18,44,16,30.61,17.69,89.29,30.5
124,2024,04,29,18,48,54,30.53,17.7,89.31,30.5
125,2024,04,29,18,53,32,30.53,17.71,89.32,30.5
126,2024,04,29,18,58,10,30.52,17.72,89.33,30.5
127,2024,04,29,19,02,48,30.54,17.72,89.34,30.5
128,2024,04,29,19,07,26,30.33,17.73,89.36,30.5
129,2024,04,29,19,12,03,30.45,17.74,89.37,30.4
130,2024,04,29,19,16,41,30.48,17.75,89.38,30.4
131,2024,04,29,19,21,18,30.47,17.76,89.39,30.4
132,2024,04,29,19,25,57,30.54,17.77,89.4,30.4
133,2024,04,29,19,30,35,30.3,17.78,89.41,30.4
134,2024,04,29,19,35,12,30.46,17.79,89.43,30.4
135,2024,04,29,19,39,50,30.46,17.8,89.44,30.4
136,2024,04,29,19,44,29,30.31,17.81,89.45,30.4
137,2024,04,29,19,49,07,30.47,17.82,89.46,30.4
138,2024,04,29,19,53,45,30.21,17.83,89.47,30.4
139,2024,04,29,19,58,22,30.53,17.83,89.47,30.5
140,2024,04,29,20,03,00,30.57,17.83,89.47,30.5
141,2024,04,29,20,07,38,30.66,17.83,89.47,30.5
142,2024,04,29,20,12,16,30.61,17.83,89.47,30.5
143,2024,04,29,20,16,53,30.45,17.83,89.47,30.4
144,2024,04,29,20,21,31,30.5,17.83,89.47,30.4
145,2024,04,29,20,26,08,30.46,17.82,89.47,30.4
146,2024,04,29,20,30,46,30.52,17.82,89.47,30.4
147,2024,04,29,20,35,24,30.5,17.82,89.47,30.4
148,2024,04,29,20,40,01,30.49,17.82,89.47,30.4
149,2024,04,29,20,44,39,30.49,17.82,89.47,30.4
150,2024,04,29,20,49,17,30.53,17.82,89.47,30.4
151,2024,04,29,20,53,55,30.5,17.82,89.47,30.4
152,2024,04,29,20,58,33,30.61,17.81,89.47,30.4
153,2024,04,29,21,03,11,30.48,17.81,89.47,30.4
154,2024,04,29,21,07,49,30.51,17.81,89.47,30.4
155,2024,04,29,21,12,27,30.49,17.81,89.47,30.4
156,2024,04,29,21,17,05,30.53,17.81,89.47,30.4
157,2024,04,29,21,21,42,30.42,17.81,89.47,30.4
158,2024,04,29,21,26,19,30.48,17.81,89.47,30.4
159,2024,04,29,21,30,57,30.51,17.81,89.47,30.4
160,2024,04,29,21,35,35,30.44,17.8,89.47,30.4
161,2024,04,29,21,40,13,30.43,17.79,89.47,30.4
162,2024,04,29,21,44,52,30.46,17.79,89.46,30.4
163,2024,04,29,21,49,30,30.41,17.78,89.46,30.4
164,2024,04,29,21,54,07,30.47,17.76,89.45,30.4
165,2024,04,29,21,58,45,30.4,17.76,89.45,30.4
166,2024,04,29,22,03,24,30.4,17.75,89.44,30.3
167,2024,04,29,22,08,02,30.33,17.74,89.44,30.3
168,2024,04,29,22,12,40,30.38,17.73,89.44,30.3
169,2024,04,29,22,17,18,30.36,17.72,89.43,30.3
170,2024,04,29,22,21,56,30.36,17.71,89.43,30.3
171,2024,04,29,22,26,34,30.39,17.7,89.42,30.3
172,2024,04,29,22,31,12,30.34,17.69,89.42,30.3
173,2024,04,29,22,35,51,30.36,17.68,89.42,30.3
174,2024,04,29,22,40,28,30.38,17.67,89.41,30.3
175,2024,04,29,22,45,07,30.37,17.65,89.41,30.3
176,2024,04,29,22,49,45,30.39,17.65,89.41,30.3
177,2024,04,29,22,54,22,30.34,17.63,89.4,30.3
178,2024,04,29,22,59,00,30.39,17.62,89.4,30.3
179,2024,04,29,23,03,38,30.46,17.61,89.4,30.3
180,2024,04,29,23,08,15,30.4,17.6,89.39,30.4
181,2024,04,29,23,12,54,30.48,17.6,89.39,30.4
182,2024,04,29,23,17,31,30.43,17.58,89.39,30.4
183,2024,04,29,23,22,09,30.45,17.57,89.38,30.4
184,2024,04,29,23,26,47,30.47,17.57,89.38,30.4
185,2024,04,29,23,31,25,30.46,17.55,89.38,30.4
186,2024,04,29,23,36,03,30.55,17.54,89.37,30.4
187,2024,04,29,23,40,41,30.42,17.53,89.37,30.4
188,2024,04,29,23,45,18,30.36,17.52,89.36,30.4
189,2024,04,29,23,49,55,30.45,17.51,89.36,30.4
190,2024,04,29,23,54,33,30.44,17.5,89.36,30.4
191,2024,04,29,23,59,11,30.42,17.49,89.35,30.4
192,2024,04,30,00,03,49,30.41,17.48,89.35,30.4
193,2024,04,30,00,08,27,30.42,17.47,89.35,30.4
194,2024,04,30,00,13,04,30.39,17.46,89.34,30.4
195,2024,04,30,00,17,43,30.41,17.45,89.34,30.4
196,2024,04,30,00,22,20,30.48,17.44,89.34,30.4
197,2024,04,30,00,26,58,30.42,17.43,89.33,30.4
198,2024,04,30,00,31,36,30.39,17.42,89.33,30.4
199,2024,04,30,00,36,14,30.45,17.41,89.33,30.4
200,2024,04,30,00,40,51,30.45,17.4,89.32,30.5
201,2024,04,30,00,45,29,30.49,17.39,89.32,30.5
202,2024,04,30,00,50,08,30.55,17.38,89.32,30.5
203,2024,04,30,00,54,45,30.44,17.37,89.31,30.5
204,2024,04,30,00,59,23,30.44,17.37,89.31,30.5
205,2024,04,30,01,04,00,30.54,17.37,89.31,30.5
206,2024,04,30,01,08,38,30.6,17.37,89.31,30.5
207,2024,04,30,01,13,16,30.56,17.37,89.31,30.5
208,2024,04,30,01,17,54,30.55,17.37,89.31,30.5
209,2024,04,30,01,22,32,30.62,17.37,89.31,30.5
210,2024,04,30,01,27,10,30.58,17.36,89.31,30.5
211,2024,04,30,01,31,48,30.63,17.36,89.31,30.5
212,2024,04,30,01,36,26,30.67,17.36,89.31,30.5
213,2024,04,30,01,41,04,30.57,17.36,89.31,30.5
214,2024,04,30,01,45,41,30.55,17.36,89.31,30.5
215,2024,04,30,01,50,19,30.66,17.36,89.31,30.5
216,2024,04,30,01,54,57,30.61,17.36,89.31,30.5
217,2024,04,30,01,59,35,30.73,17.35,89.31,30.5
218,2024,04,30,02,04,13,30.67,17.35,89.3,30.5
219,2024,04,30,00,08,33,30.6,17.47,89.35,30.4
220,2024,04,30,00,13,11,30.59,17.46,89.34,30.4
221,2024,04,30,00,17,48,30.6,17.45,89.34,30.4
222,2024,04,30,00,22,26,30.62,17.44,89.34,30.4
223,2024,04,30,00,27,04,30.63,17.43,89.33,30.4
224,2024,04,30,00,31,42,30.58,17.42,89.33,30.4
225,2024,04,30,00,36,20,30.62,17.41,89.33,30.4
226,2024,04,30,00,40,57,30.49,17.4,89.32,30.5
227,2024,04,30,00,45,35,30.47,17.39,89.32,30.5
228,2024,04,30,00,50,13,30.52,17.38,89.32,30.5
229,2024,04,30,00,54,50,30.55,17.37,89.31,30.5
230,2024,04,30,00,59,29,30.66,17.37,89.31,30.5
231,2024,04,30,01,04,06,30.47,17.37,89.31,30.5
232,2024,04,30,01,08,44,30.58,17.37,89.31,30.5
233,2024,04,30,01,13,21,30.61,17.37,89.31,30.5
234,2024,04,30,01,17,59,30.48,17.37,89.31,30.5
235,2024,04,30,01,22,37,30.7,17.37,89.31,30.5
236,2024,04,30,01,27,15,30.66,17.36,89.31,30.5
237,2024,04,30,01,31,53,30.64,17.36,89.31,30.5
238,2024,04,30,01,36,31,30.68,17.36,89.31,30.5
239,2024,04,30,01,41,08,30.56,17.36,89.31,30.5
240,2024,04,30,01,45,46,30.64,17.36,89.31,30.5
241,2024,04,30,01,50,24,30.68,17.36,89.31,30.5
242,2024,04,30,01,55,01,30.66,17.36,89.31,30.5
243,2024,04,30,01,59,40,30.7,17.35,89.31,30.5
244,2024,04,30,02,04,18,30.58,17.35,89.3,30.5
245,2024,04,30,02,08,55,30.71,17.34,89.3,30.5
246,2024,04,30,02,13,33,30.7,17.33,89.3,30.5
247,2024,04,30,02,18,10,30.69,17.32,89.29,30.5
248,2024,04,30,02,22,48,30.77,17.31,89.29,30.5
249,2024,04,30,02,27,26,30.77,17.3,89.29,30.5
250,2024,04,30,02,32,04,30.73,17.29,89.28,30.5
251,2024,04,30,02,36,42,30.74,17.28,89.28,30.5
252,2024,04,30,02,41,20,30.74,17.27,89.28,30.5
253,2024,04,30,02,45,57,30.73,17.26,89.27,30.5
254,2024,04,30,02,50,35,30.74,17.25,89.27,30.5
255,2024,04,30,02,55,12,30.81,17.24,89.27,30.5
256,2024,04,30,02,59,51,30.86,17.23,89.26,30.5
257,2024,04,30,03,04,29,30.8,17.22,89.26,30.5
258,2024,04,30,03,09,06,30.73,17.21,89.26,30.5
259,2024,04,30,03,13,44,30.89,17.2,89.25,30.5
260,2024,04,30,03,18,23,30.81,17.19,89.25,30.5
261,2024,04,30,03,23,01,30.88,17.18,89.25,30.5
262,2024,04,30,03,27,39,30.9,17.17,89.24,30.6
263,2024,04,30,03,32,17,30.77,17.16,89.24,30.6
264,2024,04,30,03,36,53,30.82,17.15,89.24,30.6
265,2024,04,30,03,41,30,30.79,17.14,89.23,30.6
266,2024,04,30,03,46,09,30.93,17.13,89.23,30.6
267,2024,04,30,03,50,46,30.87,17.12,89.22,30.6
268,2024,04,30,03,55,24,30.86,17.11,89.22,30.6
269,2024,04,30,04,00,02,30.93,17.1,89.22,30.6
270,2024,04,30,04,04,39,30.76,17.09,89.21,30.6
271,2024,04,30,04,09,17,30.93,17.08,89.21,30.6
272,2024,04,30,04,13,56,30.86,17.07,89.21,30.6
273,2024,04,30,04,18,33,30.88,17.06,89.2,30.6
274,2024,04,30,04,23,11,30.85,17.05,89.2,30.6
275,2024,04,30,04,27,48,30.9,17.04,89.2,30.6
276,2024,04,30,04,32,26,30.99,17.03,89.19,30.6
277,2024,04,30,04,37,04,30.9,17.02,89.19,30.6
278,2024,04,30,04,41,42,31.0,17.01,89.19,30.6
279,2024,04,30,04,46,19,30.9,17.0,89.18,30.6
280,2024,04,30,04,50,57,30.9,16.99,89.18,30.6
281,2024,04,30,04,55,34,30.93,16.98,89.18,30.6
282,2024,04,30,05,00,12,30.96,16.97,89.17,30.6
283,2024,04,30,05,04,49,30.94,16.96,89.17,30.6
284,2024,04,30,05,09,27,30.86,16.95,89.17,30.6
285,2024,04,30,05,14,04,30.82,16.94,89.16,30.6
286,2024,04,30,07,18,21,30.95,16.73,89.09,30.8
287,2024,04,30,07,22,58,30.97,16.73,89.09,30.8
288,2024,04,30,07,27,36,30.95,16.73,89.09,30.8
289,2024,04,30,07,32,13,30.99,16.73,89.09,30.8
290,2024,04,30,07,36,51,30.94,16.73,89.09,30.8
291,2024,04,30,07,41,29,31.0,16.73,89.09,30.8
292,2024,04,30,07,46,07,30.88,16.73,89.09,30.8
293,2024,04,30,07,50,44,30.88,16.73,89.09,30.8
294,2024,04,30,07,55,22,30.96,16.73,89.09,30.8
295,2024,04,30,07,59,59,30.92,16.73,89.09,30.8
296,2024,04,30,08,04,37,30.91,16.73,89.09,30.8
297,2024,04,30,08,09,14,30.93,16.73,89.09,30.8
298,2024,04,30,08,13,52,30.96,16.73,89.09,30.8
299,2024,04,30,08,18,30,30.82,16.73,89.09,30.8
300,2024,04,30,08,23,07,30.69,16.73,89.09,30.8
301,2024,04,30,08,27,45,30.92,16.73,89.09,30.8
302,2024,04,30,08,32,23,30.98,16.73,89.09,30.8
303,2024,04,30,08,37,00,30.86,16.72,89.09,30.8
304,2024,04,30,08,41,38,30.85,16.72,89.09,30.8
305,2024,04,30,08,46,15,30.84,16.72,89.09,30.8
306,2024,04,30,08,50,53,30.86,16.72,89.09,30.8
307,2024,04,30,08,55,29,30.96,16.72,89.09,30.8
308,2024,04,30,09,00,07,30.89,16.72,89.09,30.8
309,2024,04,30,09,04,45,30.96,16.72,89.09,30.8
310,2024,04,30,09,09,23,30.88,16.72,89.09,30.8
311,2024,04,30,09,14,01,30.91,16.72,89.08,30.8
312,2024,04,30,09,18,39,30.84,16.72,89.08,30.8
313,2024,04,30,09,23,17,30.84,16.72,89.08,30.8
314,2024,04,30,09,27,55,30.81,16.72,89.08,30.8
315,2024,04,30,09,32,33,30.82,16.72,89.08,30.8
316,2024,04,30,09,37,10,30.81,16.72,89.08,30.8
317,2024,04,30,09,41,48,30.84,16.72,89.08,30.8
318,2024,04,30,09,46,26,30.79,16.72,89.09,30.8
319,2024,04,30,09,51,03,30.9,16.72,89.09,30.8
320,2024,04,30,09,55,40,30.77,16.72,89.09,30.8
321,2024,04,30,10,00,18,30.81,16.71,89.08,30.8
322,2024,04,30,10,04,56,30.85,16.7,89.08,30.7
323,2024,04,30,10,09,33,30.83,16.69,89.08,30.7
324,2024,04,30,10,14,11,30.97,16.68,89.07,30.7
325,2024,04,30,10,18,49,30.92,16.67,89.07,30.7
326,2024,04,30,10,23,27,30.97,16.66,89.07,30.7
327,2024,04,30,10,28,05,30.9,16.65,89.06,30.7
328,2024,04,30,10,32,42,31.0,16.64,89.06,30.7
329,2024,04,30,10,37,20,30.94,16.63,89.05,30.7
330,2024,04,30,10,41,58,31.1,16.62,89.05,30.7
331,2024,04,30,10,46,35,30.93,16.61,89.05,30.7
332,2024,04,30,10,51,13,30.98,16.6,89.04,30.7
333,2024,04,30,10,55,50,30.93,16.59,89.04,30.7
334,2024,04,30,11,00,28,30.89,16.58,89.04,30.7
335,2024,04,30,11,05,06,30.88,16.57,89.03,30.7
336,2024,04,30,11,09,43,30.91,16.56,89.03,30.7
337,2024,04,30,11,14,21,30.86,16.55,89.03,30.7
338,2024,04,30,11,18,58,30.9,16.54,89.02,30.7
339,2024,04,30,11,23,37,30.89,16.53,89.02,30.7
340,2024,04,30,11,28,14,30.99,16.52,89.02,30.7
341,2024,04,30,11,32,53,30.94,16.51,89.01,30.7
342,2024,04,30,11,37,30,30.83,16.5,89.01,30.7
343,2024,04,30,11,42,07,30.9,16.49,89.01,30.7
344,2024,04,30,11,46,44,30.73,16.48,89.0,30.7
345,2024,04,30,11,51,22,30.79,16.47,89.0,30.7
346,2024,04,30,11,55,59,30.79,16.46,89.0,30.7
347,2024,04,30,12,00,36,30.76,16.45,88.99,30.7
348,2024,04,30,12,05,14,30.74,16.44,88.99,30.7
349,2024,04,30,12,09,51,30.72,16.43,88.98,30.7
350,2024,04,30,12,14,29,30.78,16.42,88.98,30.7
351,2024,04,30,12,19,07,30.73,16.41,88.98,30.7
352,2024,04,30,12,23,45,30.79,16.4,88.97,30.7
353,2024,04,30,12,28,22,30.78,16.39,88.97,30.7
354,2024,04,30,12,33,00,30.78,16.38,88.97,30.7
355,2024,04,30,12,37,37,30.7,16.37,88.96,30.7
356,2024,04,30,12,42,15,30.68,16.36,88.96,30.7
357,2024,04,30,12,46,53,30.68,16.35,88.96,30.7
358,2024,04,30,12,51,30,30.76,16.34,88.95,30.7
359,2024,04,30,12,56,08,30.69,16.33,88.95,30.7
360,2024,04,30,13,00,45,30.71,16.33,88.95,30.7
361,2024,04,30,13,05,23,30.78,16.33,88.95,30.7
362,2024,04,30,13,10,00,30.65,16.33,88.95,30.7
363,2024,04,30,13,14,39,30.75,16.33,88.95,30.7
364,2024,04,30,13,19,17,30.62,16.33,88.95,30.7
365,2024,04,30,13,23,55,30.73,16.33,88.95,30.7
366,2024,04,30,13,28,32,30.55,16.33,88.95,30.7
367,2024,04,30,13,33,10,30.66,16.33,88.95,30.7
368,2024,04,30,13,37,48,30.65,16.33,88.95,30.7
369,2024,04,30,13,42,25,30.58,16.33,88.95,30.7
370,2024,04,30,13,47,03,30.69,16.33,88.95,30.7
371,2024,04,30,13,51,41,30.62,16.32,88.95,30.7
372,2024,04,30,13,56,18,30.62,16.32,88.95,30.6
373,2024,04,30,14,00,56,30.67,16.31,88.94,30.7
374,2024,04,30,14,05,34,30.64,16.3,88.94,30.7
375,2024,04,30,14,10,12,30.64,16.29,88.93,30.7
376,2024,04,30,14,14,50,30.63,16.28,88.93,30.7
377,2024,04,30,14,19,27,30.61,16.27,88.93,30.7
378,2024,04,30,14,24,05,30.66,16.26,88.92,30.7
379,2024,04,30,14,28,43,30.65,16.25,88.92,30.7
380,2024,04,30,14,33,20,30.56,16.24,88.91,30.7
381,2024,04,30,14,37,57,30.64,16.23,88.91,30.7
382,2024,04,30,14,42,35,30.61,16.22,88.91,30.7
383,2024,04,30,14,47,14,30.68,16.21,88.91,30.7
384,2024,04,30,14,51,52,30.63,16.2,88.9,30.7
385,2024,04,30,14,56,29,30.62,16.19,88.9,30.7
386,2024,04,30,15,01,07,30.69,16.18,88.9,30.7
387,2024,04,30,15,05,46,30.67,16.17,88.89,30.7
388,2024,04,30,15,10,24,30.68,16.16,88.89,30.7
389,2024,04,30,15,15,02,30.64,16.15,88.89,30.7
390,2024,04,30,15,19,39,30.69,16.14,88.88,30.7
391,2024,04,30,15,24,17,30.71,16.13,88.88,30.7
392,2024,04,30,15,28,55,30.67,16.13,88.88,30.7
393,2024,04,30,15,33,32,30.68,16.12,88.87,30.7
394,2024,04,30,15,38,11,30.7,16.1,88.87,30.7
395,2024,04,30,15,42,49,30.7,16.1,88.87,30.7
396,2024,04,30,15,47,26,30.72,16.09,88.86,30.7
397,2024,04,30,15,52,05,30.71,16.08,88.86,30.7
398,2024,04,30,15,56,42,30.72,16.07,88.86,30.7
399,2024,04,30,16,01,21,30.72,16.06,88.86,30.7
400,2024,04,30,16,05,59,30.74,16.05,88.85,30.7
401,2024,04,30,16,10,37,30.73,16.04,88.85,30.7
402,2024,04,30,16,15,15,30.79,16.03,88.85,30.7
403,2024,04,30,16,19,52,30.73,16.02,88.84,30.7
404,2024,04,30,16,24,30,30.68,16.01,88.84,30.7
405,2024,04,30,16,29,08,30.74,16.0,88.84,30.7
406,2024,04,30,16,33,45,30.66,15.99,88.83,30.7
407,2024,04,30,16,38,23,30.79,15.98,88.83,30.7
408,2024,04,30,16,43,01,30.68,15.97,88.83,30.7
409,2024,04,30,16,47,39,30.77,15.96,88.82,30.7
410,2024,04,30,16,52,16,30.68,15.95,88.82,30.7
411,2024,04,30,16,56,54,30.72,15.94,88.82,30.7
412,2024,04,30,17,01,32,30.79,15.93,88.82,30.7
413,2024,04,30,17,06,10,30.68,15.92,88.81,30.7
414,2024,04,30,17,10,48,30.76,15.91,88.81,30.7
415,2024,04,30,17,15,26,30.7,15.9,88.81,30.7
416,2024,04,30,17,20,03,30.68,15.89,88.8,30.7
417,2024,04,30,17,24,41,30.68,15.89,88.8,30.7
418,2024,04,30,17,29,19,30.69,15.88,88.8,30.7
419,2024,04,30,17,33,57,30.66,15.87,88.79,30.7
420,2024,04,30,17,38,36,30.85,15.86,88.79,30.7
421,2024,04,30,17,43,14,30.83,15.85,88.78,30.8
422,2024,04,30,17,47,52,30.76,15.84,88.78,30.8
423,2024,04,30,17,52,30,30.72,15.83,88.78,30.7
424,2024,04,30,17,57,07,30.77,15.82,88.77,30.7
425,2024,04,30,18,01,45,30.8,15.81,88.77,30.7
426,2024,04,30,18,06,23,30.75,15.8,88.77,30.7
427,2024,04,30,18,11,01,30.73,15.79,88.76,30.7
428,2024,04,30,18,15,39,30.71,15.79,88.76,30.7
429,2024,04,30,18,20,17,30.67,15.78,88.76,30.7
430,2024,04,30,18,24,55,30.68,15.77,88.76,30.6
431,2024,04,30,18,29,33,30.55,15.76,88.75,30.7
432,2024,04,30,18,34,12,30.31,15.75,88.75,30.5
433,2024,04,30,18,38,50,30.34,15.74,88.75,30.3
434,2024,04,30,18,43,28,30.48,15.73,88.74,30.4
435,2024,04,30,18,48,07,30.5,15.72,88.74,30.4
436,2024,04,30,18,52,44,30.36,15.71,88.74,30.4
437,2024,04,30,18,57,22,30.46,15.71,88.74,30.4
438,2024,04,30,19,02,01,30.5,15.71,88.74,30.4
439,2024,04,30,19,06,39,30.51,15.71,88.74,30.4
440,2024,04,30,19,11,18,30.43,15.71,88.74,30.4
441,2024,04,30,19,15,56,30.49,15.71,88.74,30.4
442,2024,04,30,19,20,34,30.53,15.71,88.74,30.4
443,2024,04,30,19,25,11,30.31,15.71,88.74,30.4
444,2024,04,30,19,29,49,30.56,15.71,88.74,30.4
445,2024,04,30,19,34,27,30.45,15.71,88.74,30.4
446,2024,04,30,19,39,05,30.53,15.71,88.74,30.4
447,2024,04,30,19,43,43,30.63,15.71,88.74,30.4
448,2024,04,30,19,48,21,30.51,15.71,88.74,30.4
449,2024,04,30,19,52,59,30.53,15.71,88.74,30.4
450,2024,04,30,19,57,37,30.27,15.7,88.74,30.4
451,2024,04,30,20,02,14,30.36,15.69,88.73,30.4
452,2024,04,30,20,06,52,30.46,15.68,88.73,30.4
453,2024,04,30,20,11,30,30.45,15.67,88.73,30.4
454,2024,04,30,20,16,07,30.44,15.66,88.72,30.4
455,2024,04,30,20,20,45,30.35,15.66,88.72,30.4
456,2024,04,30,20,25,22,30.72,15.65,88.71,30.5
457,2024,04,30,20,30,00,30.56,15.63,88.71,30.6
458,2024,04,30,20,34,38,30.27,15.63,88.71,30.6
459,2024,04,30,20,39,16,30.43,15.62,88.7,30.5
460,2024,04,30,20,43,55,30.35,15.61,88.7,30.3
461,2024,04,30,20,48,33,29.86,15.6,88.7,30.2
462,2024,04,30,20,53,10,30.16,15.58,88.69,30.1
463,2024,04,30,20,57,48,30.13,15.58,88.69,30.1
464,2024,04,30,21,02,26,30.43,15.57,88.69,30.2
465,2024,04,30,21,07,05,30.45,15.56,88.68,30.3
466,2024,04,30,21,11,43,30.48,15.55,88.68,30.4
467,2024,04,30,21,16,20,30.62,15.54,88.68,30.4
468,2024,04,30,21,20,58,30.59,15.53,88.67,30.5
469,2024,04,30,21,25,36,30.54,15.52,88.67,30.5
470,2024,04,30,21,30,14,30.63,15.51,88.66,30.5
471,2024,04,30,21,34,52,30.57,15.5,88.66,30.5
472,2024,04,30,21,39,30,30.71,15.49,88.66,30.6
473,2024,04,30,21,44,09,30.54,15.48,88.65,30.6
474,2024,04,30,21,48,46,30.77,15.47,88.65,30.6
475,2024,04,30,21,53,24,30.72,15.46,88.65,30.6
476,2024,04,30,21,58,01,30.68,15.45,88.65,30.6
477,2024,04,30,22,02,39,30.45,15.44,88.64,30.6
478,2024,04,30,22,07,17,30.74,15.43,88.64,30.6
479,2024,04,30,22,11,55,30.6,15.42,88.64,30.6
480,2024,04,30,22,16,32,30.52,15.41,88.63,30.5
481,2024,04,30,22,21,11,30.64,15.4,88.63,30.5
482,2024,04,30,22,25,48,30.5,15.39,88.63,30.5
483,2024,04,30,22,30,26,30.63,15.38,88.62,30.5
484,2024,04,30,22,35,04,30.41,15.37,88.62,30.5
485,2024,04,30,22,39,42,30.62,15.36,88.62,30.5
486,2024,04,30,22,44,20,30.68,15.35,88.61,30.6
487,2024,04,30,22,48,58,30.62,15.35,88.61,30.6
488,2024,04,30,22,53,36,30.51,15.33,88.61,30.5
489,2024,04,30,22,58,13,30.52,15.32,88.6,30.5
490,2024,04,30,23,02,52,30.5,15.32,88.6,30.5
491,2024,04,30,23,07,30,30.7,15.3,88.6,30.5
492,2024,04,30,23,12,08,30.34,15.29,88.59,30.5
493,2024,04,30,23,16,45,30.4,15.29,88.59,30.5
494,2024,04,30,23,21,24,30.32,15.27,88.59,30.6
495,2024,04,30,23,26,02,30.74,15.26,88.58,30.6
496,2024,04,30,23,30,41,30.68,15.26,88.58,30.6
497,2024,04,30,23,35,19,30.74,15.25,88.58,30.6
498,2024,04,30,23,39,57,30.38,15.24,88.57,30.6
499,2024,04,30,23,44,35,30.66,15.23,88.57,30.6
500,2024,04,30,23,49,13,30.73,15.22,88.57,30.6
501,2024,04,30,23,53,51,30.57,15.21,88.56,30.6
502,2024,04,30,23,58,30,30.49,15.2,88.56,30.5
503,2024,05,01,00,03,08,30.5,15.19,88.56,30.5